Powrót do katalogu

PICO-02A021

AktywnyNaukaSSO
NORAD 60538·PAYLOAD·🇮🇹 Italy

Wystrzelony Aug 16, 2024 z Vandenberg Space Force Base

Loading…

Następne Przeloty (najbliższe 24 godziny)

TLE

ŚwieżeSource: Space-Track

Epoka: Sep 14, 2026, 09:46 UTC

1 60538U 24149BY  26257.40696058  .00003350  00000-0  24708-3 0  9997
2 60538  97.6700 335.4853 0006779  80.6276 279.5716 15.03959868113143

Śledź PICO-02A021 w czasie rzeczywistym z AllMySat

Download on the App Store